This demonstration page uses our WeatherBlox Daily Observations layout. Learn more.

39.29038, -76.61219

Hourly Observations for October 21, 2019

Temp ( °F °C ) Dew Point ( °F °C ) Humidity (%) Winds ( mph kmh ) Pressure ( in mb ) Visibility ( mi km ) Precip ( " mm )
12:54 am 00:54 undefined 56 13.3 51 10.6 84 84 undefined N/A 29.97 1015 N/A 0 0
1:54 am 01:54 undefined 56 13.3 51 10.6 84 84 undefined N/A 29.97 1015 N/A 0 0
2:54 am 02:54 undefined 56 13.3 51 10.6 84 84 undefined N/A 29.97 1015 N/A 0 0
3:54 am 03:54 undefined 56 13.3 51 10.6 84 84 undefined N/A 29.97 1015 N/A 0 0
4:54 am 04:54 undefined 55 12.8 50 10 83 83 undefined N/A 30 1016 N/A 0 0
5:54 am 05:54 undefined 55 12.8 49 9.4 80 80 undefined N/A 30.03 1017 N/A 0 0
6:54 am 06:54 undefined 55 12.8 49 9.4 80 80 undefined N/A 30.03 1017 N/A 0 0
7:54 am 07:54 undefined 55 12.8 49 9.4 80 80 undefined N/A 30.03 1017 N/A 0 0
8:54 am 08:54 undefined 56 13.3 49 9.4 77 77 undefined N/A 30.09 1019 N/A 0 0
9:54 am 09:54 undefined 58 14.4 49 9.4 72 72 undefined N/A 30.12 1020 N/A 0 0
10:54 am 10:54 undefined 60 15.6 48 8.9 65 65 undefined N/A 30.12 1020 N/A 0 0
11:54 am 11:54 undefined 63 17.2 48 8.9 58 58 undefined N/A 30.09 1019 N/A 0 0
12:54 pm 12:54 undefined 67 19.4 49 9.4 53 53 undefined N/A 30.06 1018 N/A 0 0
1:54 pm 13:54 undefined 69 20.6 50 10 51 51 undefined N/A 30.03 1017 N/A 0 0
2:54 pm 14:54 undefined 70 21.1 50 10 49 49 undefined N/A 30.03 1017 N/A 0 0
3:54 pm 15:54 undefined 66 18.9 50 10 56 56 undefined N/A 30.03 1017 N/A 0 0
4:54 pm 16:54 undefined 65 18.3 49 9.4 56 56 undefined N/A 30.06 1018 N/A 0 0
5:54 pm 17:54 undefined 64 17.8 49 9.4 58 58 undefined N/A 30.06 1018 N/A 0 0
6:54 pm 18:54 undefined 63 17.2 51 10.6 65 65 undefined N/A 30.06 1018 N/A 0 0
7:54 pm 19:54 undefined 62 16.7 51 10.6 67 67 undefined N/A 30.06 1018 N/A 0 0
8:54 pm 20:54 undefined 62 16.7 53 11.7 73 73 undefined N/A 30.06 1018 N/A 0 0
9:54 pm 21:54 undefined 61 16.1 51 10.6 70 70 undefined N/A 30.09 1019 N/A 0 0
10:54 pm 22:54 undefined 61 16.1 54 12.2 78 78 undefined N/A 30.09 1019 N/A 0 0
11:54 pm 23:54 undefined 61 16.1 55 12.8 81 81 undefined N/A 30.06 1018 N/A 0 0

Powered by AerisWeather